Location: *
(35.8942°N, 23.3025°E)
Time: 21:48:32
(UTC+00:00)

Tiangong - Visible Passes

Search period start: 02 December 2021 00:00
Search period end: 12 December 2021 00:00
Orbit: 380 x 384 km, 41.5° (Epoch: 02 December)

Date Brightness Start Highest point End Pass type
(mag) Time Alt. Az. Time Alt. Az. Time Alt. Az.
05 Dec 3.8 17:17:19 10° SSW 17:18:07 16° SSW 17:18:07 16° SSW visible
06 Dec 3.0 16:17:44 10° S 16:19:52 17° SE 16:20:47 15° ESE visible
07 Dec 1.5 16:52:49 10° SW 16:55:32 53° S 16:55:32 53° S visible
08 Dec 2.3 15:52:41 10° SSW 15:55:31 31° SSE 15:58:02 12° E visible
08 Dec 3.9 17:29:09 10° W 17:30:12 19° W 17:30:12 19° W visible
09 Dec 1.0 16:28:31 10° WSW 16:31:40 79° NNW 16:32:38 41° ENE visible
10 Dec 2.7 17:05:05 10° W 17:07:10 29° NW 17:07:10 29° NW visible
11 Dec 1.6 16:04:18 10° W 16:07:22 49° NNW 16:09:30 18° NE visible
